Location: Gollag?dem
(16.8053°N, 80.8024°E)
Time: 17:17:21
(UTC+00:00)

Cosmos 2058 - Pass Details

Date: 13 August 2020
Orbit: 563 x 582 km, 82.5° (Epoch: 18 September)

Event Time Altitude Azimuth Distance (km) Brightness Sun altitude
Rises 23:40:47 0° 346° (NNW) 2,789 6.5 -9.9°
Reaches altitude 10° 23:43:01 10° 340° (NNW) 1,891 5.5 -9.4°
Maximum altitude 23:47:01 46° 267° (W) 785 3.2 -8.5°
Drops below altitude 10° 23:51:01 10° 194° (SSW) 1,892 5.3 -7.6°
Sets 23:53:16 0° 188° (S) 2,790 6.2 -7.0°
